Flag for Estonia Weather past 2 weeks in Kohtla-Järve, Estonia

Now
65 °F

Overcast.


Feels Like: 65 °F
Forecast: 53 / 66 °F
Wind: 2 mph from Southwest

Location: Johvi

Current Time: Sep 18, 2014 at 3:24:22 PM

Latest Report: Sep 18, 2014 at 2:00 PM


Visibility: 22 mi

Pressure: 30.31 "Hg

Humidity: 52%

Dew point: 47 °F

Location of Kohtla-JärveLocation

Historic Weather in Kohtla-Järve — Graph

°F

Kohtla-Järve temperature yesterday

Maximum temperature yesterday: 65 °F (at 3:00 PM)
Minimum temperature yesterday: 38 °F (at 5:00 AM)
Average temperature yesterday: 51 °F

Past Weeks' High & Low Weather Summary

 TemperatureHumidityPressure
High71 °F (Sep 8, 2:00 PM)100% (Sep 6, 1:00 AM)30.47 "Hg (Sep 6, 1:00 AM)
Low35 °F (Sep 16, 6:00 AM)49% (Sep 17, 4:00 PM)29.95 "Hg (Sep 9, 4:00 PM)
Average56 °F85%30.26 "Hg
* Reported Sep 3 2:00 PM — Sep 18 2:00 PM, Kohtla-Järve, Weather by CustomWeather, © 2014

Note: Actual official high and low records may vary slightly from our data, if they occured in-between our weather recording intervals... More about our weather records

Advertising

Kohtla-Järve weather history for previous 24 hours

 ConditionsComfort  
Time TempWeatherWind HumidityBarometerVisibility
2:00 PM
Sep 18
65 °FOvercast.2 mph52%30.31 "Hg22 mi
1:00 PM63 °FPassing clouds.2 mph56%30.33 "Hg22 mi
12:00 PM63 °FSunny.2 mph59%30.33 "Hg15 mi
11:00 AM61 °FSunny.1 mph67%30.33 "Hg15 mi
10:00 AM57 °FSunny.1 mph78%30.33 "Hg12 mi
9:00 AM51 °FSunny.1 mph95%30.33 "Hg11 mi
8:00 AM41 °FSunny.1 mph98%30.34 "Hg6 mi
7:00 AM40 °FFog.1 mph97%30.33 "Hg3 mi
6:00 AM40 °FFog.1 mph98%30.33 "Hg2 mi
5:00 AM39 °FClear.1 mph98%30.33 "Hg4 mi
4:00 AM40 °FClear.1 mph98%30.34 "Hg1 mi
3:00 AM41 °FFog.1 mph97%30.34 "Hg4 mi
2:00 AM44 °FClear.No wind96%30.34 "Hg8 mi
1:00 AM45 °FClear.1 mph97%30.34 "Hg15 mi
12:00 AM45 °FClear.1 mph96%30.35 "Hg7 mi
11:00 PM
Sep 17
46 °FClear.2 mph96%30.35 "Hg11 mi
10:00 PM45 °FClear.1 mph93%30.35 "Hg8 mi
9:00 PM48 °FClear.1 mph92%30.35 "Hg11 mi
8:00 PM53 °FClear.1 mph82%30.34 "Hg15 mi
7:00 PM54 °FSunny.2 mph77%30.35 "Hg18 mi
6:00 PM60 °FSunny.3 mph63%30.35 "Hg19 mi
5:00 PM62 °FSunny.3 mph56%30.36 "Hg16 mi
4:00 PM64 °FSunny.2 mph49%30.36 "Hg17 mi
3:00 PM65 °FSunny.2 mph50%30.38 "Hg19 mi
Weather by CustomWeather, © 2014

See weather overviewHow to use our weather pages